User: anonymous   Login
Location: Unspecified
(0.0000°N, 0.0000°E)
Time: 14:24:52
(UTC+00:00)
Language:

NNS O-25 - Orbit

View from above orbital plane
View from above orbital plane
View from above satellite
View from above satellite

Ground track
Ground track

The orbit data is extracted from the following two-line orbital elements,

1 19419U 88074A   18171.97211938 +.00000027 +00000-0 +29230-4 0  9998
2 19419 089.9864 018.4822 0098275 116.2366 001.3353 13.42190500459920
Epoch (UTC): 20 June 2018 23:19:51
Eccentricity: 0.0098275
inclination: 89.9864°
perigee height: 1027 km
apogee height: 1174 km
right ascension of ascending node: 18.4822°
argument of perigee: 116.2366°
revolutions per day: 13.42190500
mean anomaly at epoch: 1.3353°
orbit number at epoch: 45992

The dashed part of the orbit path shows where the satellite is in the earth's shadow,  

DLR